"Sample Date","Sample Time","Sample Value","Units","Flow Rate","Laser Status","Micron Size 0","Counts/Channel 0","Micron Size 1","Counts/Channel 1","Micron Size 2","Counts/Channel 2","Micron Size 3","Counts/Channel 3","Micron Size 4","Counts/Channel 4","Micron Size 5","Counts/Channel 5","Micron Size 6","Counts/Channel 6","Micron Size 7","Counts/Channel 7","Micron Size 8","Counts/Channel 8","Micron Size 9","Counts/Channel 9","Micron Size 10","Counts/Channel 10","Micron Size 11","Counts/Channel 11","Micron Size 12","Counts/Channel 12","Micron Size 13","Counts/Channel 13","Micron Size 14","Counts/Channel 14","Micron Size 15","Counts/Channel 15","Micron Size 16","Counts/Channel 16","Micron Size 17","Counts/Channel 17","Micron Size 18","Counts/Channel 18","Micron Size 19","Counts/Channel 19","Micron Size 20","Counts/Channel 20","Micron Size 21","Counts/Channel 21","Micron Size 22","Counts/Channel 22","Micron Size 23","Counts/Channel 23","Micron Size 24","Counts/Channel 24","Micron Size 25","Counts/Channel 25","Micron Size 26","Counts/Channel 26","Micron Size 27","Counts/Channel 27","Micron Size 28","Counts/Channel 28","Micron Size 29","Counts/Channel 29","Micron Size 30","Counts/Channel 30","Micron Size 31","Counts/Channel 31"
"03/02/08","17:00:04",30052.000,"cc",28345.531,1,0.100,27848.000,0.200,1035.000,0.300,445.000,0.500,520.000,1.000,204.000,5.000,0
"03/02/08","17:00:10",30134.000,"cc",28334.961,1,0.100,27899.000,0.200,1042.000,0.300,466.000,0.500,493.000,1.000,234.000,5.000,0
"03/02/08","17:00:16",30241.000,"cc",28323.695,1,0.100,27994.000,0.200,1035.000,0.300,487.000,0.500,495.000,1.000,229.000,5.000,1.000
"03/02/08","17:00:22",29856.000,"cc",28282.172,1,0.100,27603.000,0.200,1086.000,0.300,453.000,0.500,514.000,1.000,200.000,5.000,0
"03/02/08","17:00:28",30082.000,"cc",28328.565,1,0.100,27940.000,0.200,995.000,0.300,431.000,0.500,514.000,1.000,202.000,5.000,0
"03/02/08","17:00:34",30027.000,"cc",28269.469,1,0.100,27836.000,0.200,1036.000,0.300,416.000,0.500,516.000,1.000,223.000,5.000,0
"03/02/08","17:00:40",29783.000,"cc",28338.512,1,0.100,27660.000,0.200,1009.000,0.300,443.000,0.500,463.000,1.000,208.000,5.000,0
"03/02/08","17:00:46",29714.000,"cc",28286.582,1,0.100,27649.000,0.200,939.000,0.300,421.000,0.500,478.000,1.000,227.000,5.000,0
"03/02/08","17:00:52",30106.000,"cc",28318.961,1,0.100,27846.000,0.200,1065.000,0.300,500.000,0.500,492.000,1.000,203.000,5.000,0
"03/02/08","17:00:58",29760.000,"cc",28362.643,1,0.100,27526.000,0.200,1050.000,0.300,455.000,0.500,527.000,1.000,202.000,5.000,0
"03/02/08","17:01:04",30079.000,"cc",28384.596,1,0.100,27863.000,0.200,1059.000,0.300,463.000,0.500,501.000,1.000,193.000,5.000,0
"03/02/08","17:01:10",29813.000,"cc",28295.750,1,0.100,27582.000,0.200,1051.000,0.300,454.000,0.500,520.000,1.000,206.000,5.000,0
"03/02/08","17:01:16",29843.000,"cc",28278.164,1,0.100,27664.000,0.200,990.000,0.300,462.000,0.500,510.000,1.000,217.000,5.000,0
"03/02/08","17:01:22",29721.000,"cc",28332.539,1,0.100,27451.000,0.200,1048.000,0.300,473.000,0.500,547.000,1.000,201.000,5.000,1.000
"03/02/08","17:01:28",30179.000,"cc",28287.377,1,0.100,27959.000,0.200,1057.000,0.300,436.000,0.500,508.000,1.000,219.000,5.000,0
"03/02/08","17:01:34",30202.000,"cc",28342.113,1,0.100,27981.000,0.200,1029.000,0.300,454.000,0.500,505.000,1.000,233.000,5.000,0
"03/02/08","17:01:40",30269.000,"cc",28316.014,1,0.100,27986.000,0.200,1062.000,0.300,482.000,0.500,524.000,1.000,215.000,5.000,0
"03/02/08","17:01:46",30031.000,"cc",28363.953,1,0.100,27727.000,0.200,1068.000,0.300,507.000,0.500,515.000,1.000,214.000,5.000,0
"03/02/08","17:01:52",30209.000,"cc",28295.572,1,0.100,28022.000,0.200,1005.000,0.300,472.000,0.500,483.000,1.000,227.000,5.000,0
"03/02/08","17:01:58",29718.000,"cc",28325.898,1,0.100,27629.000,0.200,1008.000,0.300,440.000,0.500,451.000,1.000,190.000,5.000,0
"03/02/08","17:02:04",30255.000,"cc",28269.512,1,0.100,28058.000,0.200,1043.000,0.300,471.000,0.500,484.000,1.000,199.000,5.000,0
"03/02/08","17:02:10",30169.000,"cc",28226.371,1,0.100,27862.000,0.200,1106.000,0.300,464.000,0.500,526.000,1.000,210.000,5.000,1.000
"03/02/08","17:02:16",30073.000,"cc",28293.563,1,0.100,27895.000,0.200,997.000,0.300,395.000,0.500,550.000,1.000,236.000,5.000,0
"03/02/08","17:02:22",30118.000,"cc",28388.482,1,0.100,27881.000,0.200,1032.000,0.300,474.000,0.500,511.000,1.000,220.000,5.000,0
"03/02/08","17:02:28",29951.000,"cc",28362.402,1,0.100,27706.000,0.200,1085.000,0.300,473.000,0.500,483.000,1.000,204.000,5.000,0
"03/02/08","17:02:34",30009.000,"cc",28271.758,1,0.100,27746.000,0.200,1020.000,0.300,492.000,0.500,526.000,1.000,225.000,5.000,0
"03/02/08","17:02:40",30079.000,"cc",28316.445,1,0.100,27949.000,0.200,1021.000,0.300,446.000,0.500,465.000,1.000,198.000,5.000,0
"03/02/08","17:02:46",30133.000,"cc",28268.699,1,0.100,27896.000,0.200,1065.000,0.300,457.000,0.500,500.000,1.000,215.000,5.000,0
"03/02/08","17:02:52",29825.000,"cc",28357.256,1,0.100,27625.000,0.200,1017.000,0.300,458.000,0.500,497.000,1.000,228.000,5.000,0
"03/02/08","17:02:58",30186.000,"cc",28329.135,1,0.100,27940.000,0.200,1043.000,0.300,496.000,0.500,483.000,1.000,224.000,5.000,0
"03/02/08","17:03:04",30215.000,"cc",28325.137,1,0.100,27971.000,0.200,1065.000,0.300,463.000,0.500,507.000,1.000,209.000,5.000,0
"03/02/08","17:03:10",29922.000,"cc",28331.893,1,0.100,27706.000,0.200,1037.000,0.300,462.000,0.500,501.000,1.000,216.000,5.000,0
"03/02/08","17:03:16",29874.000,"cc",28361.764,1,0.100,27789.000,0.200,971.000,0.300,392.000,0.500,507.000,1.000,215.000,5.000,0
"03/02/08","17:03:22",30114.000,"cc",28297.178,1,0.100,27933.000,0.200,972.000,0.300,502.000,0.500,473.000,1.000,234.000,5.000,0
"03/02/08","17:03:28",30056.000,"cc",28300.033,1,0.100,27840.000,0.200,1046.000,0.300,476.000,0.500,463.000,1.000,231.000,5.000,0
"03/02/08","17:03:34",30135.000,"cc",28229.477,1,0.100,27960.000,0.200,1016.000,0.300,425.000,0.500,506.000,1.000,228.000,5.000,0
"03/02/08","17:03:40",30469.000,"cc",28389.262,1,0.100,28148.000,0.200,1097.000,0.300,458.000,0.500,510.000,1.000,256.000,5.000,0
"03/02/08","17:03:46",29932.000,"cc",28305.182,1,0.100,27705.000,0.200,1030.000,0.300,459.000,0.500,518.000,1.000,220.000,5.000,0
"03/02/08","17:03:52",30039.000,"cc",28297.334,1,0.100,27811.000,0.200,1032.000,0.300,454.000,0.500,531.000,1.000,211.000,5.000,0
"03/02/08","17:03:58",30245.000,"cc",28317.973,1,0.100,28033.000,0.200,1015.000,0.300,462.000,0.500,496.000,1.000,239.000,5.000,0
"03/02/08","17:04:04",30413.000,"cc",28257.381,1,0.100,28172.000,0.200,1032.000,0.300,477.000,0.500,525.000,1.000,207.000,5.000,0
"03/02/08","17:04:10",30230.000,"cc",28318.307,1,0.100,27962.000,0.200,1074.000,0.300,475.000,0.500,500.000,1.000,219.000,5.000,0
"03/02/08","17:04:16",30451.000,"cc",28349.772,1,0.100,28154.000,0.200,1074.000,0.300,465.000,0.500,535.000,1.000,223.000,5.000,0
"03/02/08","17:04:22",30610.000,"cc",28338.580,1,0.100,28401.000,0.200,1038.000,0.300,455.000,0.500,503.000,1.000,212.000,5.000,1.000
"03/02/08","17:04:28",30303.000,"cc",28345.906,1,0.100,28049.000,0.200,998.000,0.300,490.000,0.500,547.000,1.000,219.000,5.000,0
"03/02/08","17:04:34",30117.000,"cc",28335.981,1,0.100,27961.000,0.200,975.000,0.300,464.000,0.500,504.000,1.000,213.000,5.000,0
"03/02/08","17:04:40",30325.000,"cc",28308.734,1,0.100,28091.000,0.200,1038.000,0.300,444.000,0.500,521.000,1.000,231.000,5.000,0
"03/02/08","17:04:46",30296.000,"cc",28299.174,1,0.100,28019.000,0.200,1018.000,0.300,497.000,0.500,545.000,1.000,217.000,5.000,0
"03/02/08","17:04:52",30580.000,"cc",28319.590,1,0.100,28290.000,0.200,1059.000,0.300,469.000,0.500,551.000,1.000,211.000,5.000,0
"03/02/08","17:04:58",30667.000,"cc",28361.527,1,0.100,28401.000,0.200,1052.000,0.300,498.000,0.500,499.000,1.000,217.000,5.000,0
"03/02/08","17:05:04",30561.000,"cc",28300.369,1,0.100,28359.000,0.200,990.000,0.300,444.000,0.500,510.000,1.000,258.000,5.000,0
"03/02/08","17:05:10",30798.000,"cc",28318.164,1,0.100,28479.000,0.200,1088.000,0.300,491.000,0.500,516.000,1.000,224.000,5.000,0
"03/02/08","17:05:16",30307.000,"cc",28294.951,1,0.100,28006.000,0.200,1116.000,0.300,458.000,0.500,520.000,1.000,207.000,5.000,0
"03/02/08","17:05:22",30609.000,"cc",28360.053,1,0.100,28338.000,0.200,1102.000,0.300,462.000,0.500,476.000,1.000,231.000,5.000,0
"03/02/08","17:05:28",30728.000,"cc",28313.279,1,0.100,28401.000,0.200,1083.000,0.300,492.000,0.500,535.000,1.000,217.000,5.000,0
"03/02/08","17:05:34",30694.000,"cc",28255.523,1,0.100,28274.000,0.200,1154.000,0.300,509.000,0.500,532.000,1.000,225.000,5.000,0
"03/02/08","17:05:40",30487.000,"cc",28283.492,1,0.100,28265.000,0.200,1056.000,0.300,460.000,0.500,495.000,1.000,211.000,5.000,0
"03/02/08","17:05:46",30315.000,"cc",28384.916,1,0.100,28042.000,0.200,1099.000,0.300,476.000,0.500,504.000,1.000,194.000,5.000,0
"03/02/08","17:05:52",30185.000,"cc",28337.891,1,0.100,27956.000,0.200,1032.000,0.300,435.000,0.500,523.000,1.000,239.000,5.000,0
"03/02/08","17:05:58",30510.000,"cc",28359.148,1,0.100,28322.000,0.200,1020.000,0.300,439.000,0.500,539.000,1.000,190.000,5.000,0
"03/02/08","17:06:04",30696.000,"cc",28340.172,1,0.100,28438.000,0.200,1030.000,0.300,479.000,0.500,527.000,1.000,222.000,5.000,0
"03/02/08","17:06:10",30599.000,"cc",28299.135,1,0.100,28252.000,0.200,1093.000,0.300,476.000,0.500,551.000,1.000,227.000,5.000,0
"03/02/08","17:06:16",30940.000,"cc",28315.844,1,0.100,28578.000,0.200,1098.000,0.300,507.000,0.500,526.000,1.000,231.000,5.000,0
"03/02/08","17:06:22",30316.000,"cc",28315.342,1,0.100,28030.000,0.200,1064.000,0.300,458.000,0.500,520.000,1.000,244.000,5.000,0
"03/02/08","17:06:28",30669.000,"cc",28281.307,1,0.100,28377.000,0.200,1085.000,0.300,474.000,0.500,510.000,1.000,223.000,5.000,0
"03/02/08","17:06:34",30270.000,"cc",28326.141,1,0.100,27960.000,0.200,1067.000,0.300,527.000,0.500,523.000,1.000,193.000,5.000,0
"03/02/08","17:06:40",30522.000,"cc",28344.541,1,0.100,28218.000,0.200,1080.000,0.300,532.000,0.500,496.000,1.000,196.000,5.000,0
"03/02/08","17:06:46",30312.000,"cc",28349.285,1,0.100,28041.000,0.200,1054.000,0.300,464.000,0.500,539.000,1.000,214.000,5.000,0
"03/02/08","17:06:52",30694.000,"cc",28328.473,1,0.100,28423.000,0.200,1031.000,0.300,501.000,0.500,519.000,1.000,220.000,5.000,0
"03/02/08","17:06:58",30887.000,"cc",28291.621,1,0.100,28584.000,0.200,1091.000,0.300,470.000,0.500,541.000,1.000,201.000,5.000,0
"03/02/08","17:07:04",30832.000,"cc",28225.494,1,0.100,28624.000,0.200,1074.000,0.300,443.000,0.500,472.000,1.000,219.000,5.000,0
"03/02/08","17:07:10",30598.000,"cc",28297.332,1,0.100,28431.000,0.200,1038.000,0.300,440.000,0.500,483.000,1.000,206.000,5.000,0
"03/02/08","17:07:16",30938.000,"cc",28344.092,1,0.100,28714.000,0.200,1048.000,0.300,471.000,0.500,488.000,1.000,217.000,5.000,0
"03/02/08","17:07:22",30557.000,"cc",28358.580,1,0.100,28220.000,0.200,1114.000,0.300,468.000,0.500,524.000,1.000,231.000,5.000,0
"03/02/08","17:07:28",30950.000,"cc",28339.703,1,0.100,28753.000,0.200,1015.000,0.300,461.000,0.500,501.000,1.000,220.000,5.000,0
"03/02/08","17:07:34",31040.000,"cc",28351.377,1,0.100,28759.000,0.200,1070.000,0.300,463.000,0.500,507.000,1.000,241.000,5.000,0
"03/02/08","17:07:40",31488.000,"cc",28276.684,1,0.100,29180.000,0.200,1201.000,0.300,450.000,0.500,460.000,1.000,197.000,5.000,0
"03/02/08","17:07:46",31514.000,"cc",28308.129,1,0.100,29160.000,0.200,1146.000,0.300,505.000,0.500,496.000,1.000,207.000,5.000,0
"03/02/08","17:07:52",31369.000,"cc",28345.889,1,0.100,28980.000,0.200,1109.000,0.300,522.000,0.500,534.000,1.000,224.000,5.000,0
"03/02/08","17:07:58",30758.000,"cc",28318.832,1,0.100,28461.000,0.200,1096.000,0.300,470.000,0.500,536.000,1.000,195.000,5.000,0
"03/02/08","17:08:04",31136.000,"cc",28256.510,1,0.100,28820.000,0.200,1116.000,0.300,463.000,0.500,522.000,1.000,215.000,5.000,0
"03/02/08","17:08:10",31010.000,"cc",28309.607,1,0.100,28753.000,0.200,1049.000,0.300,461.000,0.500,534.000,1.000,212.000,5.000,1.000
"03/02/08","17:08:16",31532.000,"cc",28332.359,1,0.100,29139.000,0.200,1160.000,0.300,456.000,0.500,532.000,1.000,245.000,5.000,0
"03/02/08","17:08:22",31632.000,"cc",28303.262,1,0.100,29300.000,0.200,1176.000,0.300,461.000,0.500,497.000,1.000,198.000,5.000,0
"03/02/08","17:08:28",31597.000,"cc",28347.928,1,0.100,29186.000,0.200,1179.000,0.300,500.000,0.500,530.000,1.000,202.000,5.000,0
"03/02/08","17:08:34",31272.000,"cc",28336.197,1,0.100,28949.000,0.200,1132.000,0.300,467.000,0.500,488.000,1.000,236.000,5.000,0
"03/02/08","17:08:40",31538.000,"cc",28273.125,1,0.100,29284.000,0.200,1089.000,0.300,454.000,0.500,516.000,1.000,195.000,5.000,0
"03/02/08","17:08:46",31804.000,"cc",28325.504,1,0.100,29471.000,0.200,1185.000,0.300,433.000,0.500,500.000,1.000,215.000,5.000,0
"03/02/08","17:08:52",32304.000,"cc",28259.559,1,0.100,29898.000,0.200,1237.000,0.300,480.000,0.500,457.000,1.000,232.000,5.000,0
"03/02/08","17:08:58",31561.000,"cc",28336.422,1,0.100,29175.000,0.200,1148.000,0.300,498.000,0.500,527.000,1.000,213.000,5.000,0
"03/02/08","17:09:04",31727.000,"cc",28353.320,1,0.100,29407.000,0.200,1114.000,0.300,464.000,0.500,512.000,1.000,230.000,5.000,0
"03/02/08","17:09:10",31208.000,"cc",28349.551,1,0.100,28893.000,0.200,1125.000,0.300,451.000,0.500,518.000,1.000,221.000,5.000,0
"03/02/08","17:09:16",31271.000,"cc",28257.158,1,0.100,28890.000,0.200,1140.000,0.300,464.000,0.500,548.000,1.000,229.000,5.000,0
"03/02/08","17:09:22",31358.000,"cc",28307.174,1,0.100,29042.000,0.200,1097.000,0.300,475.000,0.500,518.000,1.000,226.000,5.000,0
"03/02/08","17:09:28",31389.000,"cc",28315.953,1,0.100,29017.000,0.200,1135.000,0.300,487.000,0.500,524.000,1.000,226.000,5.000,0
"03/02/08","17:09:34",31282.000,"cc",28356.748,1,0.100,29022.000,0.200,1092.000,0.300,463.000,0.500,501.000,1.000,204.000,5.000,0
"03/02/08","17:09:40",31167.000,"cc",28368.006,1,0.100,28797.000,0.200,1125.000,0.300,490.000,0.500,534.000,1.000,221.000,5.000,0
"03/02/08","17:09:46",31479.000,"cc",28345.844,1,0.100,29033.000,0.200,1157.000,0.300,487.000,0.500,588.000,1.000,214.000,5.000,0
"03/02/08","17:09:52",31019.000,"cc",28250.465,1,0.100,28758.000,0.200,1066.000,0.300,458.000,0.500,534.000,1.000,203.000,5.000,0
"03/02/08","17:09:58",31133.000,"cc",28279.248,1,0.100,28853.000,0.200,1088.000,0.300,475.000,0.500,531.000,1.000,186.000,5.000,0
"03/02/08","17:10:04",31308.000,"cc",28358.715,1,0.100,29041.000,0.200,1078.000,0.300,512.000,0.500,488.000,1.000,189.000,5.000,0
"03/02/08","17:10:10",31394.000,"cc",28346.854,1,0.100,29078.000,0.200,1143.000,0.300,421.000,0.500,557.000,1.000,195.000,5.000,0
"03/02/08","17:10:16",31337.000,"cc",28281.551,1,0.100,28945.000,0.200,1126.000,0.300,515.000,0.500,513.000,1.000,238.000,5.000,0
"03/02/08","17:10:22",31498.000,"cc",28283.875,1,0.100,29174.000,0.200,1107.000,0.300,476.000,0.500,524.000,1.000,217.000,5.000,0
"03/02/08","17:10:28",31447.000,"cc",28322.789,1,0.100,29057.000,0.200,1112.000,0.300,487.000,0.500,575.000,1.000,216.000,5.000,0
"03/02/08","17:10:34",31422.000,"cc",28293.473,1,0.100,29008.000,0.200,1165.000,0.300,520.000,0.500,516.000,1.000,213.000,5.000,0
"03/02/08","17:10:40",31623.000,"cc",28281.434,1,0.100,29234.000,0.200,1161.000,0.300,475.000,0.500,539.000,1.000,214.000,5.000,0
"03/02/08","17:10:46",31511.000,"cc",28300.863,1,0.100,29179.000,0.200,1144.000,0.300,455.000,0.500,522.000,1.000,211.000,5.000,0
"03/02/08","17:10:52",31293.000,"cc",28402.377,1,0.100,29048.000,0.200,1079.000,0.300,465.000,0.500,509.000,1.000,192.000,5.000,0
"03/02/08","17:10:58",31242.000,"cc",28335.703,1,0.100,28952.000,0.200,1093.000,0.300,472.000,0.500,510.000,1.000,215.000,5.000,0
"03/02/08","17:11:04",31553.000,"cc",28331.947,1,0.100,29244.000,0.200,1114.000,0.300,469.000,0.500,520.000,1.000,206.000,5.000,0
"03/02/08","17:11:10",31780.000,"cc",28301.959,1,0.100,29417.000,0.200,1172.000,0.300,438.000,0.500,525.000,1.000,228.000,5.000,0
"03/02/08","17:11:16",31353.000,"cc",28321.998,1,0.100,28990.000,0.200,1193.000,0.300,454.000,0.500,501.000,1.000,215.000,5.000,0
"03/02/08","17:11:22",31385.000,"cc",28307.223,1,0.100,29034.000,0.200,1125.000,0.300,486.000,0.500,512.000,1.000,228.000,5.000,0
"03/02/08","17:11:28",31887.000,"cc",28292.057,1,0.100,29494.000,0.200,1223.000,0.300,469.000,0.500,488.000,1.000,213.000,5.000,0
"03/02/08","17:11:34",32056.000,"cc",28367.920,1,0.100,29636.000,0.200,1178.000,0.300,495.000,0.500,530.000,1.000,217.000,5.000,0
"03/02/08","17:11:40",32326.000,"cc",28249.891,1,0.100,29817.000,0.200,1272.000,0.300,488.000,0.500,528.000,1.000,221.000,5.000,0
"03/02/08","17:11:46",31822.000,"cc",28338.041,1,0.100,29424.000,0.200,1190.000,0.300,504.000,0.500,482.000,1.000,222.000,5.000,0
"03/02/08","17:11:52",31669.000,"cc",28315.762,1,0.100,29281.000,0.200,1147.000,0.300,489.000,0.500,557.000,1.000,195.000,5.000,0
"03/02/08","17:11:58",31656.000,"cc",28354.293,1,0.100,29328.000,0.200,1179.000,0.300,451.000,0.500,499.000,1.000,199.000,5.000,0
"03/02/08","17:12:04",31948.000,"cc",28257.281,1,0.100,29462.000,0.200,1267.000,0.300,474.000,0.500,540.000,1.000,205.000,5.000,0
"03/02/08","17:12:10",31765.000,"cc",28302.777,1,0.100,29461.000,0.200,1108.000,0.300,476.000,0.500,516.000,1.000,204.000,5.000,0
"03/02/08","17:12:16",31669.000,"cc",28308.426,1,0.100,29380.000,0.200,1100.000,0.300,445.000,0.500,519.000,1.000,225.000,5.000,0
"03/02/08","17:12:22",32245.000,"cc",28379.199,1,0.100,29851.000,0.200,1212.000,0.300,456.000,0.500,517.000,1.000,209.000,5.000,0
"03/02/08","17:12:28",32081.000,"cc",28308.221,1,0.100,29630.000,0.200,1257.000,0.300,478.000,0.500,512.000,1.000,204.000,5.000,0
"03/02/08","17:12:34",32667.000,"cc",28328.758,1,0.100,30203.000,0.200,1254.000,0.300,432.000,0.500,561.000,1.000,217.000,5.000,0
"03/02/08","17:12:40",32528.000,"cc",28311.098,1,0.100,30031.000,0.200,1258.000,0.300,490.000,0.500,521.000,1.000,228.000,5.000,0
"03/02/08","17:12:46",32552.000,"cc",28248.330,1,0.100,30096.000,0.200,1292.000,0.300,453.000,0.500,494.000,1.000,217.000,5.000,0
"03/02/08","17:12:52",32468.000,"cc",28315.006,1,0.100,29965.000,0.200,1280.000,0.300,487.000,0.500,517.000,1.000,219.000,5.000,0
"03/02/08","17:12:58",32452.000,"cc",28330.639,1,0.100,29946.000,0.200,1281.000,0.300,482.000,0.500,513.000,1.000,230.000,5.000,0
"03/02/08","17:13:04",32269.000,"cc",28274.551,1,0.100,29773.000,0.200,1211.000,0.300,465.000,0.500,569.000,1.000,251.000,5.000,0
"03/02/08","17:13:10",32491.000,"cc",28323.242,1,0.100,30118.000,0.200,1199.000,0.300,440.000,0.500,499.000,1.000,235.000,5.000,0
"03/02/08","17:13:16",32312.000,"cc",28364.316,1,0.100,29855.000,0.200,1231.000,0.300,480.000,0.500,521.000,1.000,225.000,5.000,0
"03/02/08","17:13:22",32328.000,"cc",28322.594,1,0.100,29848.000,0.200,1245.000,0.300,461.000,0.500,540.000,1.000,234.000,5.000,0
"03/02/08","17:13:28",32092.000,"cc",28304.244,1,0.100,29769.000,0.200,1225.000,0.300,434.000,0.500,435.000,1.000,229.000,5.000,0
"03/02/08","17:13:34",32122.000,"cc",28275.404,1,0.100,29815.000,0.200,1147.000,0.300,448.000,0.500,504.000,1.000,208.000,5.000,0
"03/02/08","17:13:40",32590.000,"cc",28367.361,1,0.100,30149.000,0.200,1235.000,0.300,471.000,0.500,496.000,1.000,239.000,5.000,0
"03/02/08","17:13:46",32397.000,"cc",28323.389,1,0.100,29948.000,0.200,1252.000,0.300,483.000,0.500,502.000,1.000,212.000,5.000,0
"03/02/08","17:13:52",32835.000,"cc",28392.295,1,0.100,30356.000,0.200,1283.000,0.300,451.000,0.500,517.000,1.000,228.000,5.000,0
"03/02/08","17:13:58",32909.000,"cc",28260.477,1,0.100,30463.000,0.200,1252.000,0.300,445.000,0.500,532.000,1.000,217.000,5.000,0
"03/02/08","17:14:04",33002.000,"cc",28314.877,1,0.100,30475.000,0.200,1320.000,0.300,458.000,0.500,528.000,1.000,221.000,5.000,0
"03/02/08","17:14:10",33116.000,"cc",28301.240,1,0.100,30523.000,0.200,1354.000,0.300,512.000,0.500,506.000,1.000,221.000,5.000,0
"03/02/08","17:14:16",33366.000,"cc",28312.488,1,0.100,30630.000,0.200,1456.000,0.300,504.000,0.500,558.000,1.000,218.000,5.000,0
"03/02/08","17:14:22",32937.000,"cc",28350.092,1,0.100,30170.000,0.200,1404.000,0.300,546.000,0.500,588.000,1.000,229.000,5.000,0
"03/02/08","17:14:28",32924.000,"cc",28304.736,1,0.100,30348.000,0.200,1350.000,0.300,495.000,0.500,510.000,1.000,221.000,5.000,0
"03/02/08","17:14:34",33314.000,"cc",28297.715,1,0.100,30720.000,0.200,1294.000,0.300,508.000,0.500,563.000,1.000,229.000,5.000,0
"03/02/08","17:14:40",32807.000,"cc",28313.072,1,0.100,30342.000,0.200,1266.000,0.300,440.000,0.500,526.000,1.000,233.000,5.000,0
"03/02/08","17:14:46",32907.000,"cc",28319.352,1,0.100,30453.000,0.200,1288.000,0.300,490.000,0.500,480.000,1.000,196.000,5.000,0
"03/02/08","17:14:52",33235.000,"cc",28333.170,1,0.100,30643.000,0.200,1345.000,0.300,474.000,0.500,541.000,1.000,232.000,5.000,0
"03/02/08","17:14:58",33025.000,"cc",28329.283,1,0.100,30418.000,0.200,1437.000,0.300,457.000,0.500,480.000,1.000,233.000,5.000,0
"03/02/08","17:15:04",33295.000,"cc",28286.033,1,0.100,30725.000,0.200,1355.000,0.300,469.000,0.500,523.000,1.000,223.000,5.000,0
"03/02/08","17:15:10",33228.000,"cc",28338.232,1,0.100,30613.000,0.200,1357.000,0.300,514.000,0.500,519.000,1.000,225.000,5.000,0
"03/02/08","17:15:16",33236.000,"cc",28303.057,1,0.100,30695.000,0.200,1322.000,0.300,466.000,0.500,501.000,1.000,252.000,5.000,0
"03/02/08","17:15:22",33301.000,"cc",28319.061,1,0.100,30770.000,0.200,1338.000,0.300,439.000,0.500,510.000,1.000,244.000,5.000,0
"03/02/08","17:15:28",32938.000,"cc",28327.656,1,0.100,30344.000,0.200,1363.000,0.300,519.000,0.500,485.000,1.000,227.000,5.000,0
"03/02/08","17:15:34",32883.000,"cc",28296.832,1,0.100,30299.000,0.200,1361.000,0.300,476.000,0.500,509.000,1.000,238.000,5.000,0
"03/02/08","17:15:40",33454.000,"cc",28303.922,1,0.100,30892.000,0.200,1317.000,0.300,494.000,0.500,533.000,1.000,218.000,5.000,0
"03/02/08","17:15:46",33285.000,"cc",28324.264,1,0.100,30733.000,0.200,1334.000,0.300,464.000,0.500,520.000,1.000,234.000,5.000,0
"03/02/08","17:15:52",33478.000,"cc",28333.330,1,0.100,30884.000,0.200,1348.000,0.300,481.000,0.500,523.000,1.000,242.000,5.000,0
"03/02/08","17:15:58",33590.000,"cc",28318.045,1,0.100,30898.000,0.200,1395.000,0.300,516.000,0.500,537.000,1.000,244.000,5.000,0
"03/02/08","17:16:04",33425.000,"cc",28337.406,1,0.100,30917.000,0.200,1307.000,0.300,453.000,0.500,498.000,1.000,250.000,5.000,0
"03/02/08","17:16:10",33117.000,"cc",28296.324,1,0.100,30566.000,0.200,1331.000,0.300,494.000,0.500,523.000,1.000,203.000,5.000,0
"03/02/08","17:16:16",33238.000,"cc",28347.518,1,0.100,30682.000,0.200,1284.000,0.300,521.000,0.500,513.000,1.000,238.000,5.000,0
"03/02/08","17:16:22",32947.000,"cc",28296.393,1,0.100,30425.000,0.200,1298.000,0.300,488.000,0.500,505.000,1.000,231.000,5.000,0
"03/02/08","17:16:28",33027.000,"cc",28325.596,1,0.100,30478.000,0.200,1296.000,0.300,497.000,0.500,536.000,1.000,220.000,5.000,0
"03/02/08","17:16:34",33514.000,"cc",28311.647,1,0.100,31005.000,0.200,1328.000,0.300,484.000,0.500,494.000,1.000,203.000,5.000,0
"03/02/08","17:16:40",33639.000,"cc",28318.418,1,0.100,31030.000,0.200,1361.000,0.300,456.000,0.500,541.000,1.000,251.000,5.000,0
"03/02/08","17:16:46",33003.000,"cc",28286.094,1,0.100,30499.000,0.200,1302.000,0.300,481.000,0.500,510.000,1.000,211.000,5.000,0
"03/02/08","17:16:52",33297.000,"cc",28320.690,1,0.100,30780.000,0.200,1315.000,0.300,473.000,0.500,496.000,1.000,233.000,5.000,0
"03/02/08","17:16:58",33248.000,"cc",28323.809,1,0.100,30727.000,0.200,1288.000,0.300,475.000,0.500,511.000,1.000,247.000,5.000,0
"03/02/08","17:17:04",33578.000,"cc",28335.055,1,0.100,31031.000,0.200,1384.000,0.300,440.000,0.500,492.000,1.000,231.000,5.000,0
"03/02/08","17:17:10",33352.000,"cc",28304.570,1,0.100,30948.000,0.200,1229.000,0.300,465.000,0.500,471.000,1.000,239.000,5.000,0
"03/02/08","17:17:16",33789.000,"cc",28315.385,1,0.100,31146.000,0.200,1296.000,0.300,517.000,0.500,563.000,1.000,267.000,5.000,0